www.pogodaiklimat.ru

Погода и климат >> Архив погоды >> Парагвай >> Encarnacion


ПОГОДА в Encarnacion

  • Прогноз погоды в Encarnacion
  • Монитор погоды в Encarnacion
  • Климат города

АРХИВ ПОГОДЫ в Encarnacion

Время (UTC), дата Ветер
(напр.,м/с)
 
Видим.   Явления Облачность Т
(С)
Тd
(С)
f
(%)
Тe
(С)
Тes
(С)
Комфортность P
(гПа)
Po
(гПа)
Тmin
(С)
Tmax
(С)
R
(мм)
R24
(мм)
S
(см)
15 11.10 Ю 4 20 км ясно +25.0 +18.7 68 +30 +43 душно 1015.5 992.3
18 11.10 ЮВ 3 20 км 6/4 800 м
[Cu Sc Ci]
+29.0 +18.0 51 +33 +41 очень
душно
1013.4 990.3
21 11.10 В 3 20 км 8/5 750 м
[Sc Ac und]
+28.8 +20.0 59 +35 +35 очень
душно
1010.8 988.1
00 12.10 СВ 3 20 км {дождь, морось} 10/10 600 м
[Sc]
+23.6 +18.7 74 +28 +28 душно 1011.2 988.6 +31.0 5
03 12.10 СВ 3 20 км 8/8 600 м
[Sc]
+22.4 +18.7 80 +28 +28 душно 1012.9 989.5
06 12.10 СВ 3 20 км 8/8 600 м
[Sc]
+21.6 +19.1 86 +27 +27 душно 1012.5 989.0
09 12.10 СВ 3 20 км 8/8 600 м
[Sc]
+21.0 +15.9 73 +25 +25 комфорт 1012.0 988.5
12 12.10 СВ 5 20 км 9/9 600 м
[Sc]
+22.6 +18.5 78 +28 +29 душно 1012.4 989.1 +19.0 5
15 12.10 В 5 20 км 6/6 800 м
[Cu Sc]
+25.4 +20.2 73 +31 +35 очень
душно
1011.9 988.7
18 12.10 С 5 20 км 9/9 600 м
[Sc]
+28.0 +22.1 70 +36 +37 очень
душно
1011.4 988.6
21 12.10 С 4 20 км гроза без осадков {морось} 10/6 600 м
[Cb cap Ac As]
+27.0 +22.6 77 +36 +36 очень
душно
1006.7 983.9 0.0
00 13.10 Ю 6 20 км {гроза, морось} 10/10 600 м
[Sc]
+19.4 +18.6 95 +21 +21 комфорт 1011.4 987.9 +30.0 23
03 13.10 ЮВ 3 20 км 10/10 600 м
[Sc]
+19.0 +18.7 98 +21 +21 комфорт 1012.1 988.6
09 13.10 Ю 5 20 км {дождь, морось} 10/6 600 м
[Sc Ac As]
+16.2 +15.8 97 +15 +15 1014.0 990.1 1
12 13.10 ЮЗ 5 20 км 10/10 300 м
[Sc]
+16.0 +15.8 99 +15 +15 1017.7 993.8 +16.0 25
15 13.10 Ю 4 20 км 10/6 600 м
[Sc Ac As]
+17.6 +14.8 84 +17 +19 1016.2 992.4
18 13.10 Ю 4 20 км 10/6 600 м
[Sc Ac As]
+18.4 +15.9 85 +19 +20 1015.9 992.2
21 13.10 Ю 4 20 км 9/9 600 м
[Sc]
+17.8 +14.8 83 +18 +18 1015.0 991.2
00 14.10 ЮВ 3 20 км 8/8 600 м
[Sc]
+17.0 +15.4 90 +17 +17 1015.2 991.4 +20.0
03 14.10 Ю 3 20 км 9/9 600 м
[Sc]
+16.4 +15.6 95 +16 +16 1015.5 991.6
06 14.10 ЮВ 4 20 км 9/9 600 м
[Sc]
+16.0 +14.5 91 +15 +15 1015.1 991.2
09 14.10 ЮВ 3 20 км 8/4 300 м
[Sc Ac As]
+15.4 +14.7 96 +15 +15 1014.7 990.7
12 14.10 ЮВ 2 20 км 9/5 540 м
[Sc Ac As]
+15.2 +14.1 93 +15 +17 1015.9 991.3 +14.8
15 14.10 ЮВ 2 20 км 10/5 540 м
[Sc Ac As]
+18.6 +12.6 68 +20 +23 1015.5 991.9
18 14.10 ЮВ 3 6000 м дождь 10/8 540 м
[Sc Ac As]
+18.0 +17.7 98 +18 +19 1014.2 990.5 0.7
21 14.10 штиль 0 20 км {дождь} 10/6 360 м
[St Ac As]
+18.0 +17.7 98 +18 +18 1013.4 989.8 1
00 15.10 ЮВ 3 20 км 6/0 1500 м
[Ac und]
+17.2 +16.6 96 +17 +17 1014.1 990.3 +29.0
03 15.10 ЮВ 1 20 км 5/0 1500 м
[Ac und]
+16.0 +14.5 91 +17 +17 1015.1 991.2
06 15.10 ЮВ 2 20 км 5/0 1500 м
[Ac und]
+15.2 +14.7 97 +15 +15 1014.1 990.1
09 15.10 штиль 0 2000 м дымка 5/0 1500 м
[Ac und]
+15.6 +14.7 94 +15 +15 1013.7 989.9
12 15.10 В 2 20 км 8/8 360 м
[St]
+18.2 +16.4 89 +19 +21 1014.0 990.3 +15.2 2
15 15.10 В 2 20 км 6/6 450 м
[Sc]
+20.4 +16.5 78 +24 +32 комфорт 1013.2 989.8
18 15.10 Ю 4 20 км 3/3 600 м
[Cu hum]
+24.8 +15.2 55 +28 +34 жарко 1010.3 987.3
21 15.10 Ю 2 20 км ясно +25.8 +14.7 50 +28 +30 жарко 1009.0 986.0
00 16.10 СВ 2 20 км ясно +22.0 +17.1 74 +26 +26 душно 1009.6 986.5 +26.4
03 16.10 В 2 20 км ясно +20.0 +16.1 78 +23 +23 комфорт 1010.3 986.9
06 16.10 В 2 20 км ясно +18.6 +16.2 86 +20 +20 1009.8 986.3
09 16.10 СВ 2 20 км ясно +17.4 +16.4 94 +18 +18 1009.4 985.7
12 16.10 штиль 0 20 км ясно +22.6 +18.7 79 +28 +38 душно 1010.1 986.9 +17.4
15 16.10 СЗ 2 20 км 6/6 900 м
[Cu hum]
+26.6 +17.7 58 +31 +39 душно 1009.5 986.6
18 16.10 С 3 20 км 5/5 900 м
[Cu hum]
+29.8 +19.6 54 +36 +42 очень
душно
1006.4 983.9
21 16.10 В 2 20 км 5/5 900 м
[Cu hum]
+28.2 +18.5 56 +33 +34 очень
душно
1005.9 983.2
00 17.10 В 2 20 км 5/0 1500 м
[Ac und]
+24.2 +19.4 75 +29 +29 душно 1006.8 983.8 +30.0
03 17.10 штиль 0 20 км 6/0
[Ac und]
+23.4 +19.9 81 +30 +30 очень
душно
1007.5 984.4
06 17.10 В 2 20 км 8/0 1500 м
[Ac und]
+21.6 +19.2 86 +27 +27 душно 1007.4 984.2
09 17.10 В 3 20 км 8/3 900 м
[Cu med, cong Ac und]
+22.6 +20.1 86 +29 +29 очень
душно
1006.8 983.7
12 17.10 В 5 5000 м гроза, ливневой дождь 10/9 450 м
[Cb cap As op]
+23.6 +21.1 86 +30 +30 очень
душно
1007.6 984.6 +21.6
15 17.10 В 4 20 км гроза без осадков 9/6 540 м
[Cb cap Ac As]
+25.4 +23.2 88 +34 +37 очень
душно
1008.1 985.1 9
18 17.10 В 8 20 км 9/5 600 м
[Sc Cs]
+28.6 +24.7 79 +41 +42 опасность
перегрева
1006.6 984.0
21 17.10 В 5 20 км 5/0
[Cs]
+27.2 +21.1 69 +34 +35 очень
душно
1006.1 983.3
03 18.10 СВ 8 20 км зарница 9/5 600 м
[Cb cap Ac und]
+23.4 +21.4 89 +32 +32 очень
душно
1007.2 984.1
06 18.10 СВ 6 20 км 9/9 600 м
[Sc diur, vesp Ac und]
+22.6 +21.5 94 +30 +30 очень
душно
1006.7 983.6

 

Местоположение метеостанции Encarnacion (Парагвай): широта -27.31 долгота -55.83 высота над уровнем моря 91 м.

В архиве по умолчанию представлена погода в Encarnacion за последнюю неделю. Архивные данные за месяц целиком и за предыдущие месяцы, начиная с января 2011 года, Вы можете получить, выбрав интересующий диапазон дат из раскрывающегося списка и нажав кнопку "Ввод!".


*Определитесь, кто Вы:
робот инопланетянин человек

Внимание! Время в таблицах - всемирное. Для получения местного времени необходимо прибавить поправку, которая в Encarnacion равна -4 ч.

Смотрите также архив погоды в соседних городах и на ближайших метеорологических станциях:

Погода в Posadas (Аргентина) (14 км)
Погода в Capitan Meza (Парагвай) (75 км)
Погода в Caazapa (Парагвай) (136 км)
Погода в Sao Luiz Gonzaga (Бразилия) (146 км)
Погода в Santa Rosa (Бразилия) (147 км)
Погода в San Juan Bautista Misiones (Парагвай) (149 км)
Погода в Sao Luiz Gonzaga (Бразилия) (150 км)
Погода в Sao Borja (Бразилия) (150 км)
Погода в Quyquyhat (Парагвай) (167 км)
Погода в Villarrica (Парагвай) (183 км)

Пояснения к столбцам:

Ветер - указаны скорость ветра в м/с - средняя за 10 мин, порывы в срок и между сроками (в фигурных скобках) и направление, откуда дует ветер: С - северный, СВ - северо-восточный, В - восточный, ЮВ - юго-восточный, Ю - южный, ЮЗ - юго-западный, З - западный, СЗ - северо-западный.
Видимость - горизонтальная дальность видимости в метрах или километрах. При видимости от 1 до 10 км при отсутствии осадков обычно наблюдается дымка, при ухудшении видимости до 1 км и менее - туман. В сухую погоду видимость может ухудшаться дымом, пылью или мглою.
Явления - указаны атмосферные явления, наблюдавшиеся в срок или в последний час перед сроком; фигурными скобками обозначены явления, наблюдавшиеся между сроками (за 1-3 часа до срока); квадратными скобками обозначены град или гололедные отложения с указанием их диаметра в мм.
Облачность - указаны через наклонную черту общая и нижняя облачность в баллах и высота нижней границы облаков в метрах; квадратными скобками обозначены формы облаков: Ci - перистые, Cs - перисто-слоистые, Cc - перисто-кучевые, Ac - высококучевые, As - высокослоистые, Sc - слоисто-кучевые, Ns - слоисто-дождевые, Cu - кучевые, Cb - кучево-дождевые. Подробнее классификацию облаков см. в Атласе облаков (PDF).
T - Температура воздуха - температура, измеренная на высоте 2 м над землей.
Td - Температура точки росы - температура, при понижении до которой содержащийся в воздухе водяной пар достигнет насыщения.
f - Относительная влажность воздуха - влажноcть воздуха, измеренная на высоте 2 м над землей.
Te - Эффективная температура - температура, которую ощущает одетый по сезону человек в тени. Характеристика душности погоды. При расчете учитывается влияние влажности воздуха и скорости ветра на теплоощущения человека.
Tes - Эффективная температура на солнце - температура, которую ощущает человек, с поправкой на солнечный нагрев. Характеристика знойности погоды. Зависит от высоты солнца над горизонтом, облачности и скорости ветра. Ночью, в пасмурную погоду, а также при ветре 12 м/с и более поправка равна нулю.
P - Атмосферное давление - приведенное к уровню моря атмосферное давление.
Po - Атмосферное давление - измеренное на уровне метеостанции атмосферное давление.
Tmin - Минимальная температура - минимум температуры воздуха на высоте 2 м над землей.
Tmax - Максимальная температура - максимум температуры воздуха на высоте 2 м над землей.
R - Количество осадков - Количество выпавших осадков за период времени, мм. При наведении курсора мыши на число - период времени, за который выпало указанное количество осадков.
R24 - Количество осадков - Количество выпавших осадков за 24 часа, мм.
S - Снежный покров - Высота снежного покрова, см. При наведении курсора мыши на число - состояние снежного покрова и степень покрытия местности в баллах.